DLH077 EDDL-EDDF

Flight info

Callsign DLH077
Flight time 0h 31m
Altitude 23000
Route COL6T COL T911 ROLIS ROLIS5A
Aircraft A320/M-SDE2E3FGIJ1LORWXYZ/HB1

Departure

Time 2026-04-16 15:15
Airport Düsseldorf Airport (EDDL)

Arrival

Time 2026-04-16 15:46
Airport Frankfurt Main Airport (EDDF)
Time Latitude Longitude Altitude Speed Heading
2026-04-16 14:53 51.28043 6.76369 125 ft 0 kts 197°
2026-04-16 15:07 51.28053 6.76374 124 ft 4 kts 197°
2026-04-16 15:08 51.28078 6.76386 122 ft 4 kts 197°
2026-04-16 15:08 51.28095 6.76401 125 ft 4 kts 268°
2026-04-16 15:08 51.28089 6.76423 125 ft 2 kts 327°
2026-04-16 15:08 51.28074 6.76439 123 ft 0 kts 327°
2026-04-16 15:10 51.28079 6.76433 128 ft 7 kts 327°
2026-04-16 15:10 51.28128 6.76363 126 ft 9 kts 304°
2026-04-16 15:11 51.28177 6.76258 123 ft 12 kts 324°
2026-04-16 15:11 51.28240 6.76254 125 ft 11 kts 43°
2026-04-16 15:11 51.28313 6.76406 124 ft 20 kts 53°
2026-04-16 15:11 51.28404 6.76597 124 ft 22 kts 52°
2026-04-16 15:12 51.28496 6.76790 123 ft 22 kts 53°
2026-04-16 15:12 51.28591 6.76990 127 ft 23 kts 53°
2026-04-16 15:12 51.28691 6.77200 128 ft 24 kts 53°
2026-04-16 15:12 51.28798 6.77423 127 ft 26 kts 52°
2026-04-16 15:13 51.28911 6.77659 128 ft 27 kts 52°
2026-04-16 15:13 51.29027 6.77903 129 ft 28 kts 53°
2026-04-16 15:13 51.29145 6.78151 134 ft 27 kts 52°
2026-04-16 15:13 51.29254 6.78381 143 ft 24 kts 52°
2026-04-16 15:14 51.29350 6.78559 151 ft 18 kts 23°
2026-04-16 15:14 51.29461 6.78567 152 ft 13 kts 353°
2026-04-16 15:14 51.29514 6.78472 150 ft 14 kts 256°
2026-04-16 15:14 51.29428 6.78280 145 ft 44 kts 232°
2026-04-16 15:15 51.29079 6.77545 127 ft 117 kts 233°
2026-04-16 15:15 51.28469 6.76269 160 ft 167 kts 233°
2026-04-16 15:15 51.27755 6.74757 785 ft 173 kts 234°
2026-04-16 15:15 51.27029 6.73193 1473 ft 180 kts 233°
2026-04-16 15:16 51.26234 6.71490 1819 ft 203 kts 233°
2026-04-16 15:16 51.25323 6.69545 2178 ft 232 kts 233°
2026-04-16 15:16 51.24321 6.67397 2833 ft 249 kts 233°
2026-04-16 15:16 51.23266 6.65188 3835 ft 253 kts 229°
2026-04-16 15:17 51.21789 6.63647 4673 ft 260 kts 196°
2026-04-16 15:17 51.19970 6.63606 5594 ft 265 kts 175°
2026-04-16 15:17 51.18134 6.63976 6624 ft 265 kts 175°
2026-04-16 15:17 51.16293 6.64354 7562 ft 270 kts 171°
2026-04-16 15:18 51.14574 6.65652 8393 ft 283 kts 142°
2026-04-16 15:18 51.13387 6.68137 9201 ft 295 kts 114°
2026-04-16 15:18 51.13075 6.71388 10046 ft 303 kts 88°
2026-04-16 15:18 51.13223 6.74789 10619 ft 319 kts 86°
2026-04-16 15:19 51.13382 6.78432 11008 ft 338 kts 86°
2026-04-16 15:19 51.13540 6.82232 11699 ft 346 kts 86°
2026-04-16 15:19 51.13693 6.86087 12463 ft 352 kts 86°
2026-04-16 15:19 51.13842 6.90009 13254 ft 357 kts 86°
2026-04-16 15:20 51.13989 6.93968 14030 ft 362 kts 86°
2026-04-16 15:20 51.14132 6.98002 14704 ft 366 kts 86°
2026-04-16 15:20 51.14273 7.02067 15359 ft 371 kts 86°
2026-04-16 15:20 51.14416 7.06200 16003 ft 375 kts 86°
2026-04-16 15:21 51.14327 7.10384 16629 ft 381 kts 97°
2026-04-16 15:21 51.13784 7.14529 17253 ft 386 kts 104°
2026-04-16 15:21 51.13117 7.18695 17871 ft 391 kts 106°
2026-04-16 15:21 51.12125 7.22767 18461 ft 396 kts 118°
2026-04-16 15:22 51.10643 7.26474 18957 ft 399 kts 130°
2026-04-16 15:22 51.08737 7.29669 19158 ft 398 kts 142°
2026-04-16 15:22 51.06487 7.32189 19209 ft 394 kts 152°
2026-04-16 15:22 51.04135 7.34450 19210 ft 395 kts 152°
2026-04-16 15:23 51.01792 7.36714 19216 ft 395 kts 152°
2026-04-16 15:23 50.99447 7.38991 19211 ft 395 kts 152°
2026-04-16 15:23 50.97104 7.41276 19216 ft 395 kts 151°
2026-04-16 15:23 50.94768 7.43554 19214 ft 394 kts 151°
2026-04-16 15:24 50.92479 7.45783 19025 ft 387 kts 151°
2026-04-16 15:24 50.90176 7.48023 18787 ft 390 kts 151°
2026-04-16 15:24 50.87826 7.50302 18542 ft 390 kts 151°
2026-04-16 15:24 50.85550 7.52501 18273 ft 389 kts 151°
2026-04-16 15:25 50.83242 7.54729 18017 ft 387 kts 151°
2026-04-16 15:25 50.80950 7.56937 17757 ft 385 kts 151°
2026-04-16 15:25 50.78632 7.59140 17480 ft 382 kts 154°
2026-04-16 15:25 50.76259 7.60835 17226 ft 378 kts 160°
2026-04-16 15:26 50.73802 7.62456 16959 ft 376 kts 160°
2026-04-16 15:26 50.71438 7.64020 16704 ft 374 kts 160°
2026-04-16 15:26 50.69045 7.65609 16448 ft 372 kts 160°
2026-04-16 15:26 50.66662 7.67196 16193 ft 370 kts 160°
2026-04-16 15:27 50.64297 7.68771 15943 ft 368 kts 160°
2026-04-16 15:27 50.61942 7.70338 15681 ft 366 kts 160°
2026-04-16 15:27 50.59604 7.71891 15432 ft 364 kts 160°
2026-04-16 15:27 50.57276 7.73434 15186 ft 362 kts 160°
2026-04-16 15:28 50.54954 7.74969 14937 ft 361 kts 160°
2026-04-16 15:28 50.52645 7.76488 14684 ft 359 kts 160°
2026-04-16 15:28 50.50343 7.78000 14404 ft 357 kts 160°
2026-04-16 15:28 50.48061 7.79498 14005 ft 355 kts 160°
2026-04-16 15:29 50.45793 7.80991 13590 ft 352 kts 160°
2026-04-16 15:29 50.43582 7.82607 13189 ft 350 kts 152°
2026-04-16 15:29 50.41626 7.84866 12866 ft 349 kts 143°
2026-04-16 15:29 50.39735 7.87251 12535 ft 347 kts 143°
2026-04-16 15:30 50.37852 7.89593 12206 ft 345 kts 144°
2026-04-16 15:30 50.35979 7.91908 11886 ft 342 kts 144°
2026-04-16 15:30 50.34120 7.94200 11565 ft 339 kts 144°
2026-04-16 15:30 50.32275 7.96472 11249 ft 336 kts 144°
2026-04-16 15:31 50.30442 7.98728 10931 ft 334 kts 143°
2026-04-16 15:31 50.28630 8.00962 10676 ft 327 kts 143°
2026-04-16 15:31 50.26888 8.03140 10556 ft 315 kts 140°
2026-04-16 15:31 50.25440 8.05623 10422 ft 305 kts 129°
2026-04-16 15:32 50.24182 8.08189 10278 ft 299 kts 129°
2026-04-16 15:32 50.22923 8.10742 10115 ft 296 kts 129°
2026-04-16 15:32 50.21662 8.13291 9936 ft 295 kts 129°
2026-04-16 15:32 50.20410 8.15820 9729 ft 294 kts 129°
2026-04-16 15:33 50.19162 8.18348 9557 ft 294 kts 129°
2026-04-16 15:33 50.17918 8.20864 9354 ft 292 kts 129°
2026-04-16 15:33 50.17076 8.22564 9244 ft 292 kts 129°
2026-04-16 15:33 50.15837 8.25061 9065 ft 291 kts 129°
2026-04-16 15:34 50.14602 8.27554 8875 ft 291 kts 129°
2026-04-16 15:34 50.13365 8.30050 8695 ft 291 kts 129°
2026-04-16 15:34 50.12128 8.32544 8511 ft 290 kts 129°
2026-04-16 15:34 50.11090 8.35229 8336 ft 290 kts 113°
2026-04-16 15:35 50.10601 8.38275 8154 ft 290 kts 95°
2026-04-16 15:35 50.10703 8.41362 7980 ft 290 kts 78°
2026-04-16 15:35 50.11323 8.44338 7802 ft 289 kts 68°
2026-04-16 15:35 50.12031 8.47265 7630 ft 289 kts 69°
2026-04-16 15:36 50.12734 8.50200 7457 ft 288 kts 69°
2026-04-16 15:36 50.13432 8.53120 7286 ft 287 kts 69°
2026-04-16 15:36 50.14124 8.56032 7107 ft 287 kts 69°
2026-04-16 15:36 50.14814 8.58946 6942 ft 286 kts 69°
2026-04-16 15:37 50.15501 8.61853 6767 ft 285 kts 69°
2026-04-16 15:37 50.16185 8.64742 6595 ft 284 kts 69°
2026-04-16 15:37 50.16870 8.67628 6411 ft 283 kts 69°
2026-04-16 15:37 50.17551 8.70487 6234 ft 282 kts 69°
2026-04-16 15:38 50.18232 8.73355 6048 ft 281 kts 69°
2026-04-16 15:38 50.18909 8.76200 5872 ft 280 kts 69°
2026-04-16 15:38 50.19587 8.79052 5688 ft 278 kts 69°
2026-04-16 15:38 50.20252 8.81874 5510 ft 277 kts 69°
2026-04-16 15:39 50.20913 8.84703 5333 ft 276 kts 70°
2026-04-16 15:39 50.21221 8.87581 5155 ft 269 kts 95°
2026-04-16 15:39 50.20643 8.90285 5030 ft 254 kts 126°
2026-04-16 15:39 50.19393 8.92000 4999 ft 238 kts 156°
2026-04-16 15:40 50.17882 8.92937 5004 ft 224 kts 163°
2026-04-16 15:40 50.16440 8.93639 4999 ft 217 kts 173°
2026-04-16 15:40 50.14940 8.93518 5005 ft 212 kts 200°
2026-04-16 15:40 50.13693 8.92363 5004 ft 209 kts 227°
2026-04-16 15:41 50.12951 8.90486 5007 ft 208 kts 254°
2026-04-16 15:41 50.12676 8.88267 5012 ft 208 kts 259°
2026-04-16 15:41 50.12303 8.86085 4946 ft 210 kts 253°
2026-04-16 15:41 50.11826 8.83933 4702 ft 210 kts 251°
2026-04-16 15:42 50.11325 8.81795 4399 ft 211 kts 250°
2026-04-16 15:42 50.10816 8.79636 4115 ft 213 kts 250°
2026-04-16 15:42 50.10302 8.77461 3809 ft 215 kts 250°
2026-04-16 15:42 50.09785 8.75271 3504 ft 216 kts 250°
2026-04-16 15:43 50.09262 8.73063 3198 ft 218 kts 250°
2026-04-16 15:43 50.08741 8.70860 2873 ft 211 kts 250°
2026-04-16 15:43 50.08251 8.68795 2588 ft 195 kts 249°
2026-04-16 15:43 50.07797 8.66880 2334 ft 183 kts 250°
2026-04-16 15:44 50.07358 8.65033 2069 ft 178 kts 250°
2026-04-16 15:44 50.06952 8.63325 1830 ft 159 kts 249°
2026-04-16 15:44 50.06587 8.61793 1573 ft 147 kts 249°
2026-04-16 15:44 50.06238 8.60330 1363 ft 141 kts 250°
2026-04-16 15:45 50.05888 8.58875 1157 ft 147 kts 250°
2026-04-16 15:45 50.05533 8.57379 948 ft 145 kts 252°
2026-04-16 15:45 50.05188 8.55928 748 ft 143 kts 252°
2026-04-16 15:45 50.04844 8.54483 573 ft 142 kts 251°
2026-04-16 15:46 50.04501 8.53057 382 ft 139 kts 252°
2026-04-16 15:46 50.04204 8.51795 335 ft 103 kts 250°
2026-04-16 15:46 50.04015 8.50999 326 ft 53 kts 249°
2026-04-16 15:46 50.03922 8.50608 322 ft 35 kts 249°
2026-04-16 15:47 50.03787 8.50309 320 ft 29 kts 224°
2026-04-16 15:47 50.03669 8.50177 321 ft 16 kts 183°
2026-04-16 15:47 50.03624 8.50275 325 ft 10 kts 75°
2026-04-16 15:47 50.03659 8.50414 325 ft 19 kts 68°
2026-04-16 15:48 50.03709 8.50623 328 ft 21 kts 70°
2026-04-16 15:48 50.03767 8.50866 330 ft 27 kts 70°
2026-04-16 15:48 50.03834 8.51146 335 ft 28 kts 69°
2026-04-16 15:48 50.03904 8.51438 334 ft 30 kts 70°
2026-04-16 15:49 50.03975 8.51734 333 ft 28 kts 70°
2026-04-16 15:49 50.04045 8.52025 337 ft 29 kts 69°
2026-04-16 15:49 50.04115 8.52317 352 ft 29 kts 69°
2026-04-16 15:49 50.04183 8.52605 358 ft 28 kts 69°
2026-04-16 15:50 50.04252 8.52891 357 ft 28 kts 69°
2026-04-16 15:50 50.04320 8.53177 366 ft 27 kts 69°
2026-04-16 15:50 50.04381 8.53431 372 ft 23 kts 69°
2026-04-16 15:50 50.04406 8.53673 375 ft 24 kts 85°
2026-04-16 15:51 50.04423 8.53939 375 ft 26 kts 84°
2026-04-16 15:51 50.04443 8.54225 375 ft 28 kts 84°
2026-04-16 15:51 50.04445 8.54525 367 ft 29 kts 104°
2026-04-16 15:51 50.04325 8.54762 358 ft 26 kts 150°
2026-04-16 15:52 50.04153 8.54862 358 ft 28 kts 160°
2026-04-16 15:52 50.03990 8.54957 354 ft 21 kts 159°
2026-04-16 15:52 50.03874 8.55026 356 ft 16 kts 156°
2026-04-16 15:52 50.03863 8.55174 351 ft 16 kts 70°
2026-04-16 15:53 50.03909 8.55365 349 ft 24 kts 69°
2026-04-16 15:53 50.03970 8.55623 356 ft 27 kts 69°
2026-04-16 15:53 50.04035 8.55897 352 ft 27 kts 69°
2026-04-16 15:53 50.04102 8.56174 357 ft 28 kts 69°
2026-04-16 15:54 50.04171 8.56462 358 ft 28 kts 70°
2026-04-16 15:54 50.04232 8.56721 359 ft 16 kts 69°
2026-04-16 15:54 50.04315 8.56818 360 ft 16 kts 11°
2026-04-16 15:54 50.04443 8.56853 364 ft 21 kts
2026-04-16 15:55 50.04582 8.56901 360 ft 20 kts 13°
2026-04-16 15:55 50.04707 8.56972 361 ft 19 kts 25°
2026-04-16 15:55 50.04817 8.57051 358 ft 14 kts 25°
2026-04-16 15:55 50.04876 8.57057 360 ft 7 kts 303°
2026-04-16 15:56 50.04893 8.57001 359 ft 2 kts 294°
2026-04-16 15:56 50.04895 8.56993 365 ft 0 kts 294°